Showing default

SKYSAT C10, 42988

Orbit data source: Space-Track

SKYSAT C10, 42988 is a payload satellite owned by Terra Bella (US) in SSO that was launched on Tue, 31 Oct 2017 UTC via a MINOTAUR-C 3210 launch vehicle from the Air Force Western Test Range (AFWTR). Payloads include a variety of satellites, spacecraft, and rockets equipped with specific instruments for various scientific and technological missions. These include communications satellites like Starlink; space stations such as the ISS; scientific satellites like the Hubble; Earth observation satellites from companies like Planet Labs, Umbra, and HawkEye 360; GPS; miniature CubeSats for education and research; and military/defense satellites.

Loading next visibility...
SKYSAT C10 details
Identifier
42988, 2017-068B
Orbit
SSO
Last TLE update1 day ago
Origin
Flag of USTerra Bella (US)
ManufacturerMaxar SSL
MissionOperational Commercial Imaging
Bus & MotorSKYSAT-GEN2, Unknown motor
Mass110 kg wet, 110 kg dry
Launch date (UTC)
2017-10-31 (7 years ago)
Launch vehicle
MINOTAUR-C 3210
Launch site
Air Force Western Test Range (AFWTR)
Object type
Payload
Rocket body
Debris
Shape & HBRBox, 1.2 m
Radar Cross Section0.888 m², Medium (>0.1 m² and < 1m²)

Expand to show TLE details & history

TLE from 1 day ago
0 SKYSAT C10
1 42988U 17068B   24360.34372389  .00024984  00000-0  77883-3 0  9990
2 42988  97.3842 125.4704 0006105 123.8209 236.3615 15.33217667399857
Epoch: 2024-12-25T08:14Z
Definitive object data (Epoch: 2024-12-25T08:14:57.744Z)
Latitude-0.00003°
Longitude-92.60902°
Altitude471.645 km
Speed7.629 km/s
True Right ascension08h 21m 52s
True Declination0° 00' 00"
Sunlit
Object was in full shadow at TLE epoch
Visualization TLE readout
Latitude-69.02468°
Longitude68.83461°
Altitude494.675 km
Speed7.615 km/s
Apparent Right ascension20h 53m 16s
Apparent Declination-56° 17' 05"
Sunlit
Object is in daylight
Visualization observer readout
Local Sidereal Time09:45:02
Azimuth156.858° SSE
Elevation-71.56°
Doppler factor1
Orbital elements
Apogee altitude467.344 km
Perigee altitude458.99 km
Semi-major axis6,841.304 km
Eccentricity0.0006105
Inclination97.3842°
RAAN125.4704°
Arg. of periapsis123.8209°
True anomaly236.30328°
Mean anomaly236.3615°
Eccentric anomaly236.33239°
Mean motion3.83561 °/min
BSTAR0.00077883
Orbital period93.86 mins
Loading maneuver chart data...
Loading historical data...
Loading historical data...
Loading historical data...
Loading historical data...
Loading historical data...
Loading historical data...
Loading historical data...

SKYSAT C10 Visibility forecast

Observer location: undefined°, undefined

Span
Click to sort rows by Start time (UTC) header in descending order
Start Az.
Max El. time (UTC)
Max El. Az.
Max El.
End time (UTC)
End Az.
5 mins2024-12-26 20:50:52.102Z44.086° NE2024-12-26 20:52:52.102Z86.683° E23.584°2024-12-26 20:55:52.102Z153.319° SSE
5 mins2024-12-27 08:56:52.102Z197.671° SSW2024-12-27 08:58:52.102Z277.448° WNW35.795°2024-12-27 09:01:52.102Z335.857° NNW
|